When you browse on this site, cookies collect data to enhance your experience and personalize the content and advertising you see.
Visit our Privacy Policy to learn more. By continuing to use the site, you agree to this use of cookies and data.
  • In Netherlands
  • List of Countries
  • For 7 days
  • Water Temperature
  • Weather Map
  • Weather Widgets
  • user-avatar
    Login

    Hourly Weather Zubanchi

    Today, 14 October, Monday

    Time Temperature Precipitation Wind Pressure Humidity
    00:00 +11°C° 0 mm 1 mps 675 mmHg 49%
    01:00 +11°C° 0 mm 1 mps 675 mmHg 47%
    02:00 +11°C° 0 mm 1 mps 675 mmHg 44%
    03:00 +11°C° 0 mm 1 mps 675 mmHg 42%
    04:00 +11°C° 0 mm 1 mps 675 mmHg 41%
    05:00 +11°C° 0 mm 1 mps 675 mmHg 39%
    06:00 +11°C° 0 mm 1 mps 675 mmHg 38%
    07:00 +13°C° 0 mm 1 mps 676 mmHg 35%
    08:00 +16°C° 0 mm 1 mps 677 mmHg 32%
    09:00 +19°C° 0 mm 1 mps 678 mmHg 30%
    10:00 +20°C° 0 mm 1 mps 677 mmHg 31%
    11:00 +19°C° 0 mm 2 mps 677 mmHg 33%
    12:00 +20°C° 0 mm 2 mps 677 mmHg 35%
    13:00 +19°C° 0 mm 2 mps 677 mmHg 37%
    14:00 +19°C° 0 mm 2 mps 677 mmHg 40%
    15:00 +18°C° 0 mm 2 mps 676 mmHg 43%
    16:00 +18°C° 0 mm 1 mps 676 mmHg 49%
    17:00 +15°C° 0 mm 1 mps 675 mmHg 56%
    18:00 +12°C° 0 mm 0 mps 675 mmHg 63%
    19:00 +13°C° 0 mm 1 mps 675 mmHg 63%
    20:00 +13°C° 0 mm 1 mps 675 mmHg 62%
    21:00 +13°C° 0 mm 1 mps 675 mmHg 62%
    22:00 +12°C° 0 mm 1 mps 675 mmHg 60%
    23:00 +12°C° 0 mm 1 mps 675 mmHg 59%

    Tomorrow, 15 October, Tuesday

    Time Temperature Precipitation Wind Pressure Humidity
    00:00 +12°C° 0 mm 1 mps 675 mmHg 57%
    01:00 +12°C° 0 mm 1 mps 674 mmHg 55%
    02:00 +12°C° 0 mm 1 mps 674 mmHg 53%
    03:00 +12°C° 0 mm 1 mps 674 mmHg 51%
    04:00 +12°C° 0 mm 1 mps 673 mmHg 48%
    05:00 +12°C° 0 mm 1 mps 673 mmHg 45%
    06:00 +12°C° 0 mm 2 mps 673 mmHg 42%
    07:00 +14°C° 0 mm 1 mps 673 mmHg 39%
    08:00 +16°C° 0 mm 1 mps 674 mmHg 35%
    09:00 +20°C° 0 mm 1 mps 675 mmHg 32%
    10:00 +21°C° 0 mm 1 mps 675 mmHg 32%
    11:00 +21°C° 0 mm 1 mps 674 mmHg 32%
    12:00 +21°C° 0 mm 2 mps 674 mmHg 32%
    13:00 +21°C° 0 mm 2 mps 674 mmHg 34%
    14:00 +21°C° 0 mm 2 mps 673 mmHg 36%
    15:00 +21°C° 0 mm 1 mps 673 mmHg 39%
    16:00 +19°C° 0 mm 1 mps 672 mmHg 43%
    17:00 +18°C° 0 mm 1 mps 672 mmHg 48%
    18:00 +15°C° 0 mm 1 mps 671 mmHg 53%
    19:00 +15°C° 0 mm 1 mps 671 mmHg 50%
    20:00 +14°C° 0 mm 1 mps 672 mmHg 46%
    21:00 +14°C° 0 mm 1 mps 672 mmHg 43%
    22:00 +14°C° 0 mm 1 mps 671 mmHg 41%
    23:00 +14°C° 0 mm 1 mps 671 mmHg 39%

    Day after tomorrow, 16 October, Wednesday

    Time Temperature Precipitation Wind Pressure Humidity
    00:00 +14°C° 0 mm 1 mps 671 mmHg 37%
    01:00 +13°C° 0 mm 1 mps 671 mmHg 37%
    02:00 +13°C° 0 mm 1 mps 671 mmHg 37%
    03:00 +13°C° 0 mm 2 mps 671 mmHg 37%
    04:00 +13°C° 0 mm 2 mps 671 mmHg 38%
    05:00 +13°C° 0 mm 2 mps 671 mmHg 39%
    06:00 +12°C° 0 mm 2 mps 671 mmHg 40%
    07:00 +14°C° 0 mm 1 mps 672 mmHg 38%
    08:00 +18°C° 0 mm 1 mps 672 mmHg 36%
    09:00 +20°C° 0 mm 1 mps 673 mmHg 33%
    10:00 +20°C° 0 mm 1 mps 673 mmHg 34%
    11:00 +20°C° 0 mm 2 mps 673 mmHg 34%
    12:00 +20°C° 0 mm 2 mps 673 mmHg 34%
    13:00 +20°C° 0 mm 2 mps 673 mmHg 39%
    14:00 +19°C° 0 mm 2 mps 673 mmHg 44%
    15:00 +19°C° 0 mm 2 mps 672 mmHg 49%
    16:00 +17°C° 0 mm 2 mps 672 mmHg 58%
    17:00 +15°C° 0 mm 1 mps 672 mmHg 66%
    18:00 +13°C° 0 mm 1 mps 671 mmHg 75%
    19:00 +13°C° 0 mm 1 mps 672 mmHg 73%
    20:00 +13°C° 0 mm 1 mps 672 mmHg 71%
    21:00 +12°C° 0 mm 1 mps 672 mmHg 69%
    22:00 +12°C° 0 mm 1 mps 672 mmHg 69%
    23:00 +12°C° 0 mm 1 mps 672 mmHg 69%

    17 October, Thursday

    Time Temperature Precipitation Wind Pressure Humidity
    00:00 +12°C° 0 mm 1 mps 672 mmHg 69%
    01:00 +12°C° 0 mm 1 mps 672 mmHg 67%
    02:00 +11°C° 0 mm 1 mps 672 mmHg 65%
    03:00 +11°C° 0 mm 1 mps 672 mmHg 63%
    04:00 +11°C° 0 mm 1 mps 672 mmHg 60%
    05:00 +11°C° 0 mm 1 mps 672 mmHg 57%
    06:00 +11°C° 0 mm 1 mps 672 mmHg 55%
    07:00 +13°C° 0 mm 1 mps 672 mmHg 50%
    08:00 +15°C° 0 mm 1 mps 673 mmHg 45%
    09:00 +18°C° 0 mm 1 mps 674 mmHg 40%
    10:00 +18°C° 0 mm 2 mps 674 mmHg 40%
    11:00 +18°C° 0 mm 2 mps 674 mmHg 39%
    12:00 +19°C° 0 mm 2 mps 674 mmHg 38%
    13:00 +19°C° 0 mm 2 mps 673 mmHg 41%
    14:00 +18°C° 0 mm 2 mps 673 mmHg 44%
    15:00 +18°C° 0 mm 2 mps 672 mmHg 47%
    16:00 +16°C° 0 mm 2 mps 672 mmHg 54%
    17:00 +14°C° 0 mm 1 mps 671 mmHg 61%
    18:00 +13°C° 0 mm 1 mps 671 mmHg 68%
    19:00 +13°C° 0 mm 1 mps 671 mmHg 66%
    20:00 +13°C° 0 mm 1 mps 671 mmHg 64%
    21:00 +12°C° 0 mm 1 mps 671 mmHg 61%
    22:00 +12°C° 0 mm 1 mps 671 mmHg 58%
    23:00 +12°C° 0 mm 1 mps 670 mmHg 55%

    18 October, Friday

    Time Temperature Precipitation Wind Pressure Humidity
    00:00 +12°C° 0 mm 1 mps 670 mmHg 52%
    01:00 +12°C° 0 mm 1 mps 670 mmHg 49%
    02:00 +12°C° 0 mm 1 mps 670 mmHg 46%
    03:00 +12°C° 0 mm 1 mps 669 mmHg 43%
    04:00 +12°C° 0 mm 1 mps 669 mmHg 43%
    05:00 +12°C° 0 mm 1 mps 669 mmHg 42%
    06:00 +12°C° 0 mm 1 mps 669 mmHg 42%
    07:00 +14°C° 0 mm 1 mps 670 mmHg 39%
    08:00 +16°C° 0 mm 1 mps 671 mmHg 36%
    09:00 +19°C° 0 mm 1 mps 671 mmHg 33%
    10:00 +20°C° 0 mm 1 mps 671 mmHg 34%
    11:00 +20°C° 0 mm 2 mps 671 mmHg 35%
    12:00 +20°C° 0 mm 2 mps 671 mmHg 35%
    13:00 +20°C° 0 mm 2 mps 671 mmHg 39%
    14:00 +19°C° 0 mm 2 mps 670 mmHg 42%
    15:00 +19°C° 0 mm 2 mps 670 mmHg 45%
    16:00 +18°C° 0 mm 1 mps 670 mmHg 51%
    17:00 +16°C° 0 mm 1 mps 669 mmHg 57%
    18:00 +13°C° 0 mm 0 mps 669 mmHg 62%
    19:00 +14°C° 0 mm 1 mps 669 mmHg 61%
    20:00 +14°C° 0 mm 1 mps 669 mmHg 59%
    21:00 +14°C° 0 mm 1 mps 670 mmHg 57%
    22:00 +13°C° 0 mm 1 mps 670 mmHg 57%
    23:00 +13°C° 0 mm 1 mps 670 mmHg 57%

    19 October, Saturday

    Time Temperature Precipitation Wind Pressure Humidity
    00:00 +13°C° 0 mm 1 mps 670 mmHg 56%
    01:00 +12°C° 0 mm 1 mps 670 mmHg 57%
    02:00 +12°C° 0 mm 1 mps 670 mmHg 58%
    03:00 +12°C° 0 mm 1 mps 670 mmHg 58%
    04:00 +11°C° 0 mm 0 mps 670 mmHg 60%
    05:00 +10°C° 0 mm 0 mps 670 mmHg 61%
    06:00 +10°C° 0 mm 0 mps 670 mmHg 63%
    07:00 +12°C° 0 mm 1 mps 671 mmHg 60%
    08:00 +14°C° 0 mm 1 mps 672 mmHg 57%
    09:00 +15°C° 0 mm 1 mps 672 mmHg 53%
    10:00 +15°C° 0.2 mm 1 mps 673 mmHg 57%
    11:00 +15°C° 0.2 mm 2 mps 673 mmHg 60%
    12:00 +15°C° 0.2 mm 2 mps 673 mmHg 63%
    13:00 +15°C° 0.2 mm 2 mps 673 mmHg 66%
    14:00 +15°C° 0.2 mm 2 mps 672 mmHg 69%
    15:00 +15°C° 0.2 mm 1 mps 672 mmHg 71%
    16:00 +13°C° 0 mm 1 mps 672 mmHg 78%
    17:00 +12°C° 0 mm 1 mps 672 mmHg 84%
    18:00 +11°C° 0 mm 1 mps 672 mmHg 91%
    19:00 +11°C° 0 mm 1 mps 672 mmHg 91%
    20:00 +11°C° 0 mm 1 mps 672 mmHg 91%
    21:00 +10°C° 0 mm 1 mps 672 mmHg 91%
    22:00 +10°C° 0 mm 1 mps 672 mmHg 91%
    23:00 +10°C° 0 mm 1 mps 672 mmHg 90%
    Show more